TimeCST,TemperatureF,Dew PointF,Humidity,Sea Level PressureIn,VisibilityMPH,Wind Direction,Wind SpeedMPH,Gust SpeedMPH,PrecipitationIn,Events,Conditions,WindDirDegrees,DateUTC
12:55 AM,19.2,15.4,85,30.03,5.0,Calm,Calm,-,N/A,,Clear,0,2013-02-24 06:55:00
1:15 AM,18.5,15.1,86,30.05,5.0,Calm,Calm,-,N/A,,Clear,0,2013-02-24 07:15:00
1:35 AM,19.2,15.8,87,30.05,5.0,Calm,Calm,-,N/A,,Clear,0,2013-02-24 07:35:00
1:55 AM,18.7,15.1,86,30.06,5.0,Calm,Calm,-,N/A,,Clear,0,2013-02-24 07:55:00
2:15 AM,17.4,13.8,86,30.04,5.0,Calm,Calm,-,N/A,,Clear,0,2013-02-24 08:15:00
2:35 AM,18.3,15.1,87,30.05,5.0,Calm,Calm,-,N/A,,Clear,0,2013-02-24 08:35:00
2:55 AM,18.0,14.5,86,30.06,4.0,Calm,Calm,-,N/A,,Clear,0,2013-02-24 08:55:00
3:15 AM,17.4,14.2,87,30.05,4.0,Calm,Calm,-,N/A,,Clear,0,2013-02-24 09:15:00
3:35 AM,16.5,13.5,88,30.05,5.0,Calm,Calm,-,N/A,,Clear,0,2013-02-24 09:35:00
3:55 AM,16.5,13.3,87,30.05,5.0,Calm,Calm,-,N/A,,Clear,0,2013-02-24 09:55:00
4:15 AM,16.2,12.9,87,30.05,7.0,Calm,Calm,-,N/A,,Clear,0,2013-02-24 10:15:00
4:35 AM,15.4,12.2,87,30.06,7.0,Calm,Calm,-,N/A,,Clear,0,2013-02-24 10:35:00
4:55 AM,16.0,12.9,88,30.06,5.0,Calm,Calm,-,N/A,,Clear,0,2013-02-24 10:55:00
5:15 AM,14.5,11.1,86,30.08,5.0,Calm,Calm,-,N/A,,Clear,0,2013-02-24 11:15:00
5:35 AM,15.4,12.0,86,30.08,5.0,Calm,Calm,-,N/A,,Clear,0,2013-02-24 11:35:00
5:55 AM,14.7,11.3,86,30.09,5.0,Calm,Calm,-,N/A,,Clear,0,2013-02-24 11:55:00
7:45 AM,15.8,12.2,86,30.12,10.0,Calm,Calm,-,N/A,,Clear,0,2013-02-24 13:45:00
8:50 AM,26.6,21.2,80,30.13,10.0,Calm,Calm,-,N/A,,Clear,0,2013-02-24 14:50:00
9:45 AM,32.0,23.0,69,30.13,10.0,Variable,3.5,-,N/A,,Clear,0,2013-02-24 15:45:00
10:50 AM,39.2,23.0,52,30.14,10.0,Variable,3.5,-,N/A,,Clear,0,2013-02-24 16:50:00
11:45 AM,41.0,19.4,42,30.14,10.0,Variable,3.5,-,N/A,,Clear,0,2013-02-24 17:45:00
12:50 PM,42.8,19.4,39,30.12,10.0,East,8.1,-,N/A,,Clear,100,2013-02-24 18:50:00
1:50 PM,42.8,19.4,39,30.10,10.0,East,9.2,-,N/A,,Clear,100,2013-02-24 19:50:00
2:47 PM,42.8,19.4,39,30.09,10.0,East,12.7,-,N/A,,Clear,90,2013-02-24 20:47:00
3:50 PM,42.8,21.2,42,30.08,10.0,East,12.7,-,N/A,,Clear,90,2013-02-24 21:50:00
4:50 PM,41.0,23.0,49,30.08,10.0,East,10.4,-,N/A,,Clear,90,2013-02-24 22:50:00
5:50 PM,39.2,23.0,52,30.08,10.0,East,11.5,-,N/A,,Clear,90,2013-02-24 23:50:00
6:50 PM,37.4,23.0,56,30.09,10.0,East,11.5,-,N/A,,Clear,90,2013-02-25 00:50:00
7:50 PM,35.6,23.0,60,30.08,10.0,East,9.2,-,N/A,,Clear,90,2013-02-25 01:50:00
8:50 PM,35.6,24.8,65,30.06,10.0,East,13.8,-,N/A,,Clear,90,2013-02-25 02:50:00
9:15 PM,36.1,24.8,63,30.08,10.0,East,6.9,-,N/A,,Clear,80,2013-02-25 03:15:00
9:35 PM,35.6,24.8,65,30.07,10.0,East,6.9,-,N/A,,Clear,80,2013-02-25 03:35:00
9:50 PM,35.6,24.8,65,30.07,10.0,East,11.5,-,N/A,,Clear,90,2013-02-25 03:50:00
9:55 PM,35.4,25.2,66,30.07,10.0,ENE,5.8,-,N/A,,Clear,70,2013-02-25 03:55:00
10:15 PM,35.2,25.7,68,30.07,10.0,East,6.9,-,N/A,,Clear,80,2013-02-25 04:15:00
10:35 PM,34.9,25.5,69,30.06,10.0,East,6.9,-,N/A,,Clear,80,2013-02-25 04:35:00
10:55 PM,34.9,25.3,68,30.06,10.0,East,5.8,-,N/A,,Clear,80,2013-02-25 04:55:00
11:15 PM,34.9,25.3,68,30.06,10.0,East,5.8,-,N/A,,Clear,80,2013-02-25 05:15:00
11:35 PM,34.7,25.7,70,30.06,10.0,East,5.8,-,N/A,,Clear,80,2013-02-25 05:35:00
11:55 PM,34.2,25.9,72,30.06,10.0,ENE,5.8,-,N/A,,Clear,70,2013-02-25 05:55:00